Regional Weather Roundup
Issued by NWS Jackson, KY

Home | Current Version | Previous Version | Graphics & Text | Print | Product List | Glossary Off
Versions: 1 2 3 4 5 6 7 8 9 10 11 12 13 14 15 16 17 18 19 20 21 22 23 24 25 26 27 28 29 30 31 32 33 34 35 36 37 38 39 40 41 42 43 44 45 46 47 48 49 50

000
ASUS43 KJKL 131005
RWRJKL

EAST KENTUCKY HOURLY WEATHER ROUNDUP
NATIONAL WEATHER SERVICE JACKSON KY
600 AM EDT SUN JUL 13 2014

NOTE: "FAIR" INDICATES FEW OR NO CLOUDS BELOW 12,000 FEET WITH
NO SIGNIFICANT WEATHER AND/OR OBSTRUCTIONS TO VISIBILITY.

* THESE REPORTS ARE NOT UNDER NWS QUALITY CONTROL AND MAY NOT
  REPORT WEATHER SUCH AS PRECIPITATION AND FOG.

KYZ079-080-083-085-087-088-110-112-115-119-120-131100
...EASTERN KENTUCKY...

CITY           SKY/WX    TMP DP  RH WIND       PRES   REMARKS
JACKSON        CLOUDY    72  63  73 VRB3      30.10R
LONDON         PTCLDY    69  63  81 CALM      30.11R
SOMERSET*      CLOUDY    70  68  94 CALM      30.10R
MONTICELLO*    CLEAR     66  65  97 CALM      30.10S FOG
MIDDLESBORO*   CLEAR     65  64  97 CALM      30.13S
HARLAN APT*    MOSUNNY   63  63 100 MISG      30.15R
BIG SANDY*     PTSUNNY   73  63  71 CALM      30.09S
MOREHEAD APT*    N/A     75  63  64 SW6       30.08S
$$

KYZ035-036-041-042-044-050-067-078-099-131100
...CENTRAL KENTUCKY...

CITY           SKY/WX    TMP DP  RH WIND       PRES   REMARKS
MT STERLING*   MOCLDY    72  63  73 SW6       30.08R
FLEMING/MASON* MOCLDY    73  65  76 SW5       30.06R
DANVILLE*      MOCLDY    72  63  73 S5        30.08S
RICHMOND*      MOCLDY    75  61  60 S6        30.07R
LEXINGTON      CLOUDY    76  64  66 S7        30.07R
FRANKFORT        N/A     73  67  81 SW3       30.04R
$$

KYZ091>093-OHZ055-061-077-WVZ005-015-034-035-042-131100
...SOUTHERN OHIO/WEST VIRGINIA...

CITY           SKY/WX    TMP DP  RH WIND       PRES   REMARKS
COVINGTON      CLOUDY    76  67  73 SW7       30.01S
COLUMBUS       CLOUDY    77  65  66 SW7       29.97F
DAYTON         CLOUDY    76  68  76 SW13      29.99S
WILMINGTON     CLOUDY    74  66  76 SW9       30.00S
HUNTINGTON     CLOUDY    73  63  70 S7        30.04S
CHARLESTON     MOCLDY    69  67  93 CALM      30.06S
PINEVILLE*     PTCLDY    66  66 100 MISG      30.19R FOG
BECKLEY        MOCLDY    70  63  78 SW3       30.17S
BLUEFIELD      MOCLDY    73  62  68 SW6       30.20F
$$

VAZ002-007-008-TNZ017-027-036-066-071-131100
...SOUTHWEST VIRGINIA/EAST TENNESSEE...

CITY           SKY/WX    TMP DP  RH WIND       PRES   REMARKS
WISE*          PTCLDY    70  63  78 SW7       30.21S
JONESVILLE*      N/A     64  64 100 CALM      30.16S
ABINGDON*      PTCLDY    69  67  93 CALM      30.18S
BRISTOL        PTCLDY    68  65  90 CALM      30.15S
KNOXVILLE      PTCLDY    70  68  93 CALM      30.11R
OAK RIDGE      CLEAR     72  69  90 CALM      30.12R
CROSSVILLE     CLEAR     68  65  90 CALM      30.15S
NASHVILLE      PTCLDY    73  68  84 CALM      30.06R
$$

...KEY TO REMARKS...
VSB - VISIBILITY IN MILES
WCI - WIND CHILL INDEX
HX  - HEAT INDEX

$$



USA.gov is the U.S. government's official web portal to all federal, state and local government web resources and services.